Wetterdaten: Sonntag, 18.05.2014
Datum Zeit Temperatur Luftfeuchte Luftdruck Regen Wind Richtung Richtung Sonnenschein ET UV Solar Taupunkt Windchill Windben
18.05.2014 00:00 9,9 C 84 % 1019,1 hPa 0,0 l/m 0,0 km/h (0 Bft) N-NO 26 0 min 0,000 mm 0,0 UV-I 0 W/m 7,3 C 9,9 C 0,0 km/h (0 Bft)
18.05.2014 00:05 9,8 C 84 % 1019,1 hPa 0,0 l/m 0,0 km/h (0 Bft) N-NO 26 0 min 0,000 mm 0,0 UV-I 0 W/m 7,2 C 9,8 C 0,0 km/h (0 Bft)
18.05.2014 00:10 9,7 C 84 % 1019,2 hPa 0,0 l/m 0,0 km/h (0 Bft) N-NO 26 0 min 0,000 mm 0,0 UV-I 0 W/m 7,1 C 9,7 C 0,0 km/h (0 Bft)
18.05.2014 00:15 9,6 C 85 % 1019,2 hPa 0,0 l/m 0,0 km/h (0 Bft) N-NO 26 0 min 0,000 mm 0,0 UV-I 0 W/m 7,2 C 9,6 C 0,0 km/h (0 Bft)
18.05.2014 00:20 9,5 C 85 % 1019,1 hPa 0,0 l/m 0,0 km/h (0 Bft) N-NO 26 0 min 0,000 mm 0,0 UV-I 0 W/m 7,1 C 9,5 C 0,0 km/h (0 Bft)
18.05.2014 00:25 9,4 C 85 % 1019,1 hPa 0,0 l/m 0,0 km/h (0 Bft) N-NO 26 0 min 0,000 mm 0,0 UV-I 0 W/m 7,0 C 9,4 C 0,0 km/h (0 Bft)
18.05.2014 00:30 9,3 C 85 % 1019,1 hPa 0,0 l/m 0,0 km/h (0 Bft) N-NO 26 0 min 0,000 mm 0,0 UV-I 0 W/m 6,9 C 9,3 C 0,0 km/h (0 Bft)
18.05.2014 00:35 9,2 C 86 % 1019,2 hPa 0,0 l/m 0,0 km/h (0 Bft) N-NO 26 0 min 0,000 mm 0,0 UV-I 0 W/m 7,0 C 9,2 C 0,0 km/h (0 Bft)
18.05.2014 00:40 9,2 C 86 % 1019,1 hPa 0,0 l/m 0,0 km/h (0 Bft) N-NO 26 0 min 0,000 mm 0,0 UV-I 0 W/m 7,0 C 9,2 C 0,0 km/h (0 Bft)
18.05.2014 00:45 9,1 C 86 % 1019,0 hPa 0,0 l/m 0,0 km/h (0 Bft) N-NO 26 0 min 0,000 mm 0,0 UV-I 0 W/m 6,9 C 9,1 C 0,0 km/h (0 Bft)
18.05.2014 00:50 9,1 C 87 % 1019,1 hPa 0,0 l/m 0,0 km/h (0 Bft) N-NO 26 0 min 0,000 mm 0,0 UV-I 0 W/m 7,1 C 9,1 C 0,0 km/h (0 Bft)
18.05.2014 00:55 9,0 C 87 % 1019,0 hPa 0,0 l/m 0,0 km/h (0 Bft) N-NO 26 0 min 0,000 mm 0,0 UV-I 0 W/m 7,0 C 9,0 C 0,0 km/h (0 Bft)
18.05.2014 01:00 8,9 C 87 % 1018,9 hPa 0,0 l/m 0,0 km/h (0 Bft) N-NO 26 0 min 0,000 mm 0,0 UV-I 0 W/m 6,9 C 8,9 C 0,0 km/h (0 Bft)
18.05.2014 01:05 8,8 C 87 % 1018,8 hPa 0,0 l/m 0,0 km/h (0 Bft) N-NO 26 0 min 0,000 mm 0,0 UV-I 0 W/m 6,8 C 8,8 C 0,0 km/h (0 Bft)
18.05.2014 01:10 8,7 C 87 % 1018,8 hPa 0,0 l/m 0,0 km/h (0 Bft) N-NO 26 0 min 0,000 mm 0,0 UV-I 0 W/m 6,7 C 8,7 C 0,0 km/h (0 Bft)
18.05.2014 01:15 8,6 C 87 % 1018,7 hPa 0,0 l/m 0,0 km/h (0 Bft) N-NO 26 0 min 0,000 mm 0,0 UV-I 0 W/m 6,6 C 8,6 C 0,0 km/h (0 Bft)
18.05.2014 01:20 8,6 C 87 % 1018,8 hPa 0,0 l/m 0,0 km/h (0 Bft) N-NO 26 0 min 0,000 mm 0,0 UV-I 0 W/m 6,6 C 8,6 C 0,0 km/h (0 Bft)
18.05.2014 01:25 8,4 C 87 % 1018,7 hPa 0,0 l/m 0,0 km/h (0 Bft) N-NO 26 0 min 0,000 mm 0,0 UV-I 0 W/m 6,4 C 8,4 C 0,0 km/h (0 Bft)
18.05.2014 01:30 8,3 C 87 % 1018,6 hPa 0,0 l/m 0,0 km/h (0 Bft) N-NO 26 0 min 0,000 mm 0,0 UV-I 0 W/m 6,3 C 8,3 C 0,0 km/h (0 Bft)
18.05.2014 01:35 8,3 C 88 % 1018,7 hPa 0,0 l/m 0,0 km/h (0 Bft) N-NO 26 0 min 0,000 mm 0,0 UV-I 0 W/m 6,4 C 8,3 C 0,0 km/h (0 Bft)
18.05.2014 01:40 8,4 C 89 % 1018,6 hPa 0,0 l/m 0,0 km/h (0 Bft) N-NO 26 0 min 0,000 mm 0,0 UV-I 0 W/m 6,7 C 8,4 C 1,6 km/h (1 Bft)
18.05.2014 01:45 8,4 C 90 % 1018,6 hPa 0,0 l/m 0,0 km/h (0 Bft) N-NO 16 0 min 0,000 mm 0,0 UV-I 0 W/m 6,9 C 8,4 C 1,6 km/h (1 Bft)
18.05.2014 01:50 8,5 C 90 % 1018,5 hPa 0,0 l/m 0,1 km/h (0 Bft) N-NO 16 0 min 0,000 mm 0,0 UV-I 0 W/m 7,0 C 8,5 C 1,6 km/h (1 Bft)
18.05.2014 01:55 8,5 C 90 % 1018,5 hPa 0,0 l/m 0,3 km/h (0 Bft) SW 236 0 min 0,000 mm 0,0 UV-I 0 W/m 7,0 C 8,5 C 4,8 km/h (1 Bft)
18.05.2014 02:00 8,5 C 90 % 1018,4 hPa 0,0 l/m 0,4 km/h (0 Bft) W-SW 238 0 min 0,000 mm 0,0 UV-I 0 W/m 7,0 C 8,5 C 3,2 km/h (1 Bft)
18.05.2014 02:05 8,5 C 90 % 1018,4 hPa 0,0 l/m 0,9 km/h (0 Bft) W 277 0 min 0,000 mm 0,0 UV-I 0 W/m 7,0 C 8,5 C 4,8 km/h (1 Bft)
18.05.2014 02:10 8,5 C 90 % 1018,4 hPa 0,0 l/m 0,6 km/h (0 Bft) W 277 0 min 0,000 mm 0,0 UV-I 0 W/m 7,0 C 8,5 C 3,2 km/h (1 Bft)
18.05.2014 02:15 8,4 C 90 % 1018,4 hPa 0,0 l/m 0,6 km/h (0 Bft) W 277 0 min 0,000 mm 0,0 UV-I 0 W/m 6,9 C 8,4 C 3,2 km/h (1 Bft)
18.05.2014 02:20 8,4 C 90 % 1018,3 hPa 0,0 l/m 1,4 km/h (1 Bft) W-NW 288 0 min 0,000 mm 0,0 UV-I 0 W/m 6,9 C 8,4 C 4,8 km/h (1 Bft)
18.05.2014 02:25 8,4 C 91 % 1018,3 hPa 0,0 l/m 0,6 km/h (0 Bft) W-NW 288 0 min 0,000 mm 0,0 UV-I 0 W/m 7,0 C 8,4 C 3,2 km/h (1 Bft)
18.05.2014 02:30 8,5 C 91 % 1018,2 hPa 0,0 l/m 1,4 km/h (1 Bft) W-NW 294 0 min 0,000 mm 0,0 UV-I 0 W/m 7,1 C 8,5 C 4,8 km/h (1 Bft)
18.05.2014 02:35 8,6 C 91 % 1018,1 hPa 0,0 l/m 0,5 km/h (0 Bft) W-NW 294 0 min 0,000 mm 0,0 UV-I 0 W/m 7,2 C 8,6 C 4,8 km/h (1 Bft)
18.05.2014 02:40 8,6 C 91 % 1018,1 hPa 0,0 l/m 0,0 km/h (0 Bft) W-NW 294 0 min 0,000 mm 0,0 UV-I 0 W/m 7,2 C 8,6 C 0,0 km/h (0 Bft)
18.05.2014 02:45 8,6 C 91 % 1018,0 hPa 0,0 l/m 0,4 km/h (0 Bft) W-NW 294 0 min 0,000 mm 0,0 UV-I 0 W/m 7,2 C 8,6 C 3,2 km/h (1 Bft)
18.05.2014 02:50 8,6 C 91 % 1018,1 hPa 0,0 l/m 1,3 km/h (1 Bft) W-NW 294 0 min 0,000 mm 0,0 UV-I 0 W/m 7,2 C 8,6 C 4,8 km/h (1 Bft)
18.05.2014 02:55 8,6 C 91 % 1018,0 hPa 0,0 l/m 0,8 km/h (0 Bft) W-NW 294 0 min 0,000 mm 0,0 UV-I 0 W/m 7,2 C 8,6 C 3,2 km/h (1 Bft)
18.05.2014 03:00 8,6 C 91 % 1018,0 hPa 0,0 l/m 0,2 km/h (0 Bft) W-NW 294 0 min 0,000 mm 0,0 UV-I 0 W/m 7,2 C 8,6 C 1,6 km/h (1 Bft)
18.05.2014 03:05 8,5 C 91 % 1018,0 hPa 0,0 l/m 0,8 km/h (0 Bft) W-NW 294 0 min 0,000 mm 0,0 UV-I 0 W/m 7,1 C 8,5 C 3,2 km/h (1 Bft)
18.05.2014 03:10 8,5 C 91 % 1018,1 hPa 0,0 l/m 0,6 km/h (0 Bft) W-NW 294 0 min 0,000 mm 0,0 UV-I 0 W/m 7,1 C 8,5 C 3,2 km/h (1 Bft)
18.05.2014 03:15 8,5 C 91 % 1018,0 hPa 0,0 l/m 0,0 km/h (0 Bft) W-NW 294 0 min 0,000 mm 0,0 UV-I 0 W/m 7,1 C 8,5 C 0,0 km/h (0 Bft)
18.05.2014 03:20 8,4 C 91 % 1018,1 hPa 0,0 l/m 0,0 km/h (0 Bft) W-NW 294 0 min 0,000 mm 0,0 UV-I 0 W/m 7,0 C 8,4 C 0,0 km/h (0 Bft)
18.05.2014 03:25 8,4 C 90 % 1018,0 hPa 0,0 l/m 0,0 km/h (0 Bft) W-NW 294 0 min 0,000 mm 0,0 UV-I 0 W/m 6,9 C 8,4 C 1,6 km/h (1 Bft)
18.05.2014 03:30 8,3 C 90 % 1018,0 hPa 0,0 l/m 0,0 km/h (0 Bft) W-NW 294 0 min 0,000 mm 0,0 UV-I 0 W/m 6,8 C 8,3 C 0,0 km/h (0 Bft)
18.05.2014 03:35 8,2 C 90 % 1018,0 hPa 0,0 l/m 0,0 km/h (0 Bft) W-NW 294 0 min 0,000 mm 0,0 UV-I 0 W/m 6,7 C 8,2 C 0,0 km/h (0 Bft)
18.05.2014 03:40 8,1 C 90 % 1017,9 hPa 0,0 l/m 0,0 km/h (0 Bft) W-NW 294 0 min 0,000 mm 0,0 UV-I 0 W/m 6,6 C 8,1 C 1,6 km/h (1 Bft)
18.05.2014 03:45 8,0 C 90 % 1017,9 hPa 0,0 l/m 0,0 km/h (0 Bft) W-NW 294 0 min 0,000 mm 0,0 UV-I 0 W/m 6,5 C 8,0 C 0,0 km/h (0 Bft)
18.05.2014 03:50 7,9 C 90 % 1017,8 hPa 0,0 l/m 0,0 km/h (0 Bft) W-NW 294 0 min 0,000 mm 0,0 UV-I 0 W/m 6,4 C 7,9 C 1,6 km/h (1 Bft)
18.05.2014 03:55 7,8 C 91 % 1017,7 hPa 0,0 l/m 0,0 km/h (0 Bft) W-NW 294 0 min 0,000 mm 0,0 UV-I 0 W/m 6,4 C 7,8 C 1,6 km/h (1 Bft)
18.05.2014 04:00 7,8 C 91 % 1017,7 hPa 0,0 l/m 0,0 km/h (0 Bft) W-NW 294 0 min 0,000 mm 0,0 UV-I 0 W/m 6,4 C 7,8 C 1,6 km/h (1 Bft)
18.05.2014 04:05 7,8 C 91 % 1017,7 hPa 0,0 l/m 0,0 km/h (0 Bft) W-NW 294 0 min 0,000 mm 0,0 UV-I 0 W/m 6,4 C 7,8 C 0,0 km/h (0 Bft)
18.05.2014 04:10 7,8 C 91 % 1017,7 hPa 0,0 l/m 0,1 km/h (0 Bft) W-NW 294 0 min 0,000 mm 0,0 UV-I 0 W/m 6,4 C 7,8 C 1,6 km/h (1 Bft)
18.05.2014 04:15 7,8 C 91 % 1017,6 hPa 0,0 l/m 0,1 km/h (0 Bft) W-NW 294 0 min 0,000 mm 0,0 UV-I 0 W/m 6,4 C 7,8 C 3,2 km/h (1 Bft)
18.05.2014 04:20 7,8 C 92 % 1017,5 hPa 0,0 l/m 0,2 km/h (0 Bft) W-NW 294 0 min 0,000 mm 0,0 UV-I 0 W/m 6,6 C 7,8 C 3,2 km/h (1 Bft)
18.05.2014 04:25 7,7 C 92 % 1017,5 hPa 0,0 l/m 0,5 km/h (0 Bft) W-NW 294 0 min 0,000 mm 0,0 UV-I 0 W/m 6,5 C 7,7 C 4,8 km/h (1 Bft)
18.05.2014 04:30 7,8 C 92 % 1017,6 hPa 0,0 l/m 0,3 km/h (0 Bft) W-NW 294 0 min 0,000 mm 0,0 UV-I 0 W/m 6,6 C 7,8 C 3,2 km/h (1 Bft)
18.05.2014 04:35 7,8 C 92 % 1017,5 hPa 0,0 l/m 0,0 km/h (0 Bft) W-NW 294 0 min 0,000 mm 0,0 UV-I 0 W/m 6,6 C 7,8 C 1,6 km/h (1 Bft)
18.05.2014 04:40 7,7 C 92 % 1017,4 hPa 0,0 l/m 0,0 km/h (0 Bft) W-NW 294 0 min 0,000 mm 0,0 UV-I 0 W/m 6,5 C 7,7 C 0,0 km/h (0 Bft)
18.05.2014 04:45 7,7 C 92 % 1017,4 hPa 0,0 l/m 0,1 km/h (0 Bft) W-NW 294 0 min 0,000 mm 0,0 UV-I 0 W/m 6,5 C 7,7 C 1,6 km/h (1 Bft)
18.05.2014 04:50 7,6 C 92 % 1017,4 hPa 0,0 l/m 0,0 km/h (0 Bft) W-NW 294 0 min 0,000 mm 0,0 UV-I 0 W/m 6,4 C 7,6 C 1,6 km/h (1 Bft)
18.05.2014 04:55 7,6 C 92 % 1017,4 hPa 0,0 l/m 0,3 km/h (0 Bft) W-NW 294 0 min 0,000 mm 0,0 UV-I 0 W/m 6,4 C 7,6 C 3,2 km/h (1 Bft)
18.05.2014 05:00 7,6 C 92 % 1017,4 hPa 0,0 l/m 0,0 km/h (0 Bft) W-NW 294 0 min 0,000 mm 0,0 UV-I 0 W/m 6,4 C 7,6 C 1,6 km/h (1 Bft)
18.05.2014 05:05 7,4 C 92 % 1017,3 hPa 0,0 l/m 0,0 km/h (0 Bft) W-NW 294 0 min 0,000 mm 0,0 UV-I 0 W/m 6,2 C 7,4 C 0,0 km/h (0 Bft)
18.05.2014 05:10 7,4 C 92 % 1017,2 hPa 0,0 l/m 0,1 km/h (0 Bft) W-NW 294 0 min 0,000 mm 0,0 UV-I 0 W/m 6,2 C 7,4 C 1,6 km/h (1 Bft)
18.05.2014 05:15 7,4 C 92 % 1017,1 hPa 0,0 l/m 1,7 km/h (1 Bft) W-NW 294 0 min 0,000 mm 0,0 UV-I 0 W/m 6,2 C 7,4 C 4,8 km/h (1 Bft)
18.05.2014 05:20 7,3 C 92 % 1017,0 hPa 0,0 l/m 2,6 km/h (1 Bft) W-NW 297 0 min 0,000 mm 0,0 UV-I 0 W/m 6,1 C 7,3 C 6,4 km/h (2 Bft)
18.05.2014 05:25 7,3 C 93 % 1016,9 hPa 0,0 l/m 2,2 km/h (1 Bft) W-NW 302 0 min 0,000 mm 0,0 UV-I 0 W/m 6,2 C 7,3 C 6,4 km/h (2 Bft)
18.05.2014 05:30 7,3 C 92 % 1016,9 hPa 0,0 l/m 0,7 km/h (0 Bft) W-NW 302 0 min 0,000 mm 0,0 UV-I 0 W/m 6,1 C 7,3 C 3,2 km/h (1 Bft)
18.05.2014 05:35 7,2 C 92 % 1016,8 hPa 0,0 l/m 1,5 km/h (1 Bft) W-NW 302 0 min 0,000 mm 0,0 UV-I 0 W/m 6,0 C 7,2 C 4,8 km/h (1 Bft)
18.05.2014 05:40 7,2 C 93 % 1016,9 hPa 0,0 l/m 0,4 km/h (0 Bft) W-NW 302 0 min 0,000 mm 0,0 UV-I 0 W/m 6,1 C 7,2 C 4,8 km/h (1 Bft)
18.05.2014 05:45 7,1 C 93 % 1016,8 hPa 0,0 l/m 0,4 km/h (0 Bft) W-NW 302 0 min 0,000 mm 0,0 UV-I 5 W/m 6,0 C 7,1 C 3,2 km/h (1 Bft)
18.05.2014 05:50 7,0 C 92 % 1016,8 hPa 0,0 l/m 0,0 km/h (0 Bft) W-NW 302 0 min 0,000 mm 0,0 UV-I 7 W/m 5,8 C 7,0 C 1,6 km/h (1 Bft)
18.05.2014 05:55 6,9 C 92 % 1016,7 hPa 0,0 l/m 0,3 km/h (0 Bft) W-NW 302 0 min 0,000 mm 0,0 UV-I 9 W/m 5,7 C 6,9 C 3,2 km/h (1 Bft)
18.05.2014 06:00 6,9 C 93 % 1016,7 hPa 0,0 l/m 0,9 km/h (0 Bft) W-SW 252 0 min 0,000 mm 0,0 UV-I 9 W/m 5,8 C 6,9 C 3,2 km/h (1 Bft)
18.05.2014 06:05 6,9 C 93 % 1016,7 hPa 0,0 l/m 0,2 km/h (0 Bft) W-SW 254 0 min 0,000 mm 0,0 UV-I 11 W/m 5,8 C 6,9 C 3,2 km/h (1 Bft)
18.05.2014 06:10 6,9 C 93 % 1016,6 hPa 0,0 l/m 0,0 km/h (0 Bft) W-SW 254 0 min 0,000 mm 0,0 UV-I 14 W/m 5,8 C 6,9 C 0,0 km/h (0 Bft)
18.05.2014 06:15 6,9 C 93 % 1016,6 hPa 0,0 l/m 0,0 km/h (0 Bft) W-SW 254 0 min 0,000 mm 0,0 UV-I 16 W/m 5,8 C 6,9 C 0,0 km/h (0 Bft)
18.05.2014 06:20 6,9 C 93 % 1016,6 hPa 0,0 l/m 0,1 km/h (0 Bft) W-SW 254 0 min 0,000 mm 0,0 UV-I 32 W/m 5,8 C 6,9 C 1,6 km/h (1 Bft)
18.05.2014 06:25 7,0 C 93 % 1016,6 hPa 0,0 l/m 0,6 km/h (0 Bft) W-SW 254 0 min 0,000 mm 0,0 UV-I 39 W/m 5,9 C 7,0 C 3,2 km/h (1 Bft)
18.05.2014 06:30 7,0 C 93 % 1016,5 hPa 0,0 l/m 0,0 km/h (0 Bft) W-SW 254 0 min 0,000 mm 0,0 UV-I 46 W/m 5,9 C 7,0 C 1,6 km/h (1 Bft)
18.05.2014 06:35 7,1 C 93 % 1016,6 hPa 0,0 l/m 0,2 km/h (0 Bft) W-SW 256 0 min 0,000 mm 0,0 UV-I 54 W/m 6,0 C 7,1 C 3,2 km/h (1 Bft)
18.05.2014 06:40 7,2 C 93 % 1016,6 hPa 0,0 l/m 0,6 km/h (0 Bft) W-NW 290 0 min 0,000 mm 0,0 UV-I 62 W/m 6,1 C 7,2 C 4,8 km/h (1 Bft)
18.05.2014 06:45 7,2 C 93 % 1016,7 hPa 0,0 l/m 0,6 km/h (0 Bft) W-NW 290 0 min 0,000 mm 0,0 UV-I 74 W/m 6,1 C 7,2 C 3,2 km/h (1 Bft)
18.05.2014 06:50 7,4 C 93 % 1016,7 hPa 0,0 l/m 0,1 km/h (0 Bft) W-NW 290 0 min 0,000 mm 0,0 UV-I 83 W/m 6,3 C 7,4 C 1,6 km/h (1 Bft)
18.05.2014 06:55 7,6 C 93 % 1016,6 hPa 0,0 l/m 0,0 km/h (0 Bft) W-NW 290 0 min 0,000 mm 0,0 UV-I 93 W/m 6,5 C 7,6 C 0,0 km/h (0 Bft)
18.05.2014 07:00 7,8 C 93 % 1016,7 hPa 0,0 l/m 0,1 km/h (0 Bft) W-NW 290 0 min 0,025 mm 0,0 UV-I 105 W/m 6,7 C 7,8 C 1,6 km/h (1 Bft)
18.05.2014 07:05 7,9 C 93 % 1016,6 hPa 0,0 l/m 0,6 km/h (0 Bft) W-SW 257 5 min 0,000 mm 0,0 UV-I 118 W/m 6,8 C 7,9 C 4,8 km/h (1 Bft)
18.05.2014 07:10 8,1 C 93 % 1016,6 hPa 0,0 l/m 0,0 km/h (0 Bft) W-SW 257 5 min 0,000 mm 0,0 UV-I 127 W/m 7,0 C 8,1 C 1,6 km/h (1 Bft)
18.05.2014 07:15 8,2 C 92 % 1016,7 hPa 0,0 l/m 0,8 km/h (0 Bft) W-SW 257 0 min 0,000 mm 0,0 UV-I 37 W/m 7,0 C 8,2 C 4,8 km/h (1 Bft)
18.05.2014 07:20 8,2 C 92 % 1016,7 hPa 0,0 l/m 0,0 km/h (0 Bft) W-SW 257 0 min 0,000 mm 0,0 UV-I 91 W/m 7,0 C 8,2 C 0,0 km/h (0 Bft)
18.05.2014 07:25 8,4 C 92 % 1016,6 hPa 0,0 l/m 0,0 km/h (0 Bft) W-SW 257 5 min 0,000 mm 0,5 UV-I 156 W/m 7,2 C 8,4 C 0,0 km/h (0 Bft)
18.05.2014 07:30 8,6 C 91 % 1016,6 hPa 0,0 l/m 0,0 km/h (0 Bft) W-SW 257 5 min 0,000 mm 0,5 UV-I 163 W/m 7,2 C 8,6 C 1,6 km/h (1 Bft)
18.05.2014 07:35 8,8 C 92 % 1016,6 hPa 0,0 l/m 0,0 km/h (0 Bft) W-SW 257 5 min 0,000 mm 0,5 UV-I 174 W/m 7,6 C 8,8 C 1,6 km/h (1 Bft)
18.05.2014 07:40 9,3 C 91 % 1016,6 hPa 0,0 l/m 0,0 km/h (0 Bft) W-SW 257 5 min 0,000 mm 0,6 UV-I 185 W/m 7,9 C 9,3 C 0,0 km/h (0 Bft)
18.05.2014 07:45 9,7 C 89 % 1016,5 hPa 0,0 l/m 0,0 km/h (0 Bft) W-SW 257 5 min 0,000 mm 0,6 UV-I 200 W/m 8,0 C 9,7 C 0,0 km/h (0 Bft)
18.05.2014 07:50 9,8 C 88 % 1016,4 hPa 0,0 l/m 0,0 km/h (0 Bft) W-SW 257 5 min 0,000 mm 0,6 UV-I 213 W/m 7,9 C 9,8 C 1,6 km/h (1 Bft)
18.05.2014 07:55 10,0 C 88 % 1016,4 hPa 0,0 l/m 0,0 km/h (0 Bft) W-SW 257 5 min 0,000 mm 0,7 UV-I 234 W/m 8,1 C 10,0 C 1,6 km/h (1 Bft)
18.05.2014 08:00 10,2 C 87 % 1016,3 hPa 0,0 l/m 0,1 km/h (0 Bft) W-SW 257 5 min 0,077 mm 0,7 UV-I 248 W/m 8,1 C 10,2 C 1,6 km/h (1 Bft)
18.05.2014 08:05 10,4 C 87 % 1016,2 hPa 0,0 l/m 0,5 km/h (0 Bft) W-SW 257 5 min 0,000 mm 0,8 UV-I 267 W/m 8,3 C 10,4 C 3,2 km/h (1 Bft)
18.05.2014 08:10 10,7 C 87 % 1016,1 hPa 0,0 l/m 1,5 km/h (1 Bft) SW 231 5 min 0,000 mm 0,9 UV-I 283 W/m 8,6 C 10,7 C 6,4 km/h (2 Bft)
18.05.2014 08:15 10,8 C 86 % 1016,1 hPa 0,0 l/m 2,0 km/h (1 Bft) W-SW 253 5 min 0,000 mm 0,9 UV-I 295 W/m 8,6 C 10,8 C 4,8 km/h (1 Bft)
18.05.2014 08:20 10,9 C 86 % 1016,1 hPa 0,0 l/m 2,6 km/h (1 Bft) W 269 5 min 0,000 mm 1,0 UV-I 306 W/m 8,7 C 10,9 C 6,4 km/h (2 Bft)
18.05.2014 08:25 10,9 C 86 % 1016,0 hPa 0,0 l/m 3,2 km/h (1 Bft) W 268 5 min 0,000 mm 1,0 UV-I 320 W/m 8,7 C 10,9 C 6,4 km/h (2 Bft)
18.05.2014 08:30 11,1 C 86 % 1016,1 hPa 0,0 l/m 2,4 km/h (1 Bft) W-SW 258 5 min 0,000 mm 1,1 UV-I 329 W/m 8,8 C 11,1 C 6,4 km/h (2 Bft)
18.05.2014 08:35 11,3 C 86 % 1016,2 hPa 0,0 l/m 2,3 km/h (1 Bft) W-SW 257 5 min 0,000 mm 1,2 UV-I 343 W/m 9,0 C 11,3 C 8,0 km/h (2 Bft)
18.05.2014 08:40 11,6 C 86 % 1016,0 hPa 0,0 l/m 1,5 km/h (1 Bft) SW 216 5 min 0,000 mm 1,3 UV-I 357 W/m 9,3 C 11,6 C 6,4 km/h (2 Bft)
18.05.2014 08:45 12,1 C 85 % 1015,9 hPa 0,0 l/m 1,0 km/h (0 Bft) W-NW 282 5 min 0,000 mm 1,3 UV-I 371 W/m 9,7 C 12,1 C 4,8 km/h (1 Bft)
18.05.2014 08:50 12,4 C 83 % 1015,9 hPa 0,0 l/m 1,5 km/h (1 Bft) W 264 5 min 0,000 mm 1,4 UV-I 380 W/m 9,6 C 12,4 C 4,8 km/h (1 Bft)
18.05.2014 08:55 12,7 C 83 % 1015,8 hPa 0,0 l/m 1,6 km/h (1 Bft) W 264 5 min 0,000 mm 1,5 UV-I 396 W/m 9,9 C 12,7 C 4,8 km/h (1 Bft)
18.05.2014 09:00 13,1 C 82 % 1015,8 hPa 0,0 l/m 1,6 km/h (1 Bft) W-NW 286 5 min 0,152 mm 1,6 UV-I 401 W/m 10,1 C 13,1 C 4,8 km/h (1 Bft)
18.05.2014 09:05 13,6 C 81 % 1015,8 hPa 0,0 l/m 0,5 km/h (0 Bft) W-NW 287 5 min 0,000 mm 1,6 UV-I 417 W/m 10,4 C 13,6 C 4,8 km/h (1 Bft)
18.05.2014 09:10 14,0 C 79 % 1015,7 hPa 0,0 l/m 0,2 km/h (0 Bft) W-NW 287 5 min 0,000 mm 1,7 UV-I 436 W/m 10,4 C 14,0 C 1,6 km/h (1 Bft)
18.05.2014 09:15 14,6 C 78 % 1015,7 hPa 0,0 l/m 0,3 km/h (0 Bft) SW 214 5 min 0,000 mm 1,8 UV-I 446 W/m 10,8 C 14,6 C 3,2 km/h (1 Bft)
18.05.2014 09:20 15,0 C 76 % 1015,6 hPa 0,0 l/m 1,4 km/h (1 Bft) S 182 5 min 0,000 mm 1,9 UV-I 457 W/m 10,8 C 15,0 C 4,8 km/h (1 Bft)
18.05.2014 09:25 15,6 C 75 % 1015,5 hPa 0,0 l/m 0,2 km/h (0 Bft) S 183 5 min 0,000 mm 2,0 UV-I 508 W/m 11,2 C 15,6 C 1,6 km/h (1 Bft)
18.05.2014 09:30 16,2 C 72 % 1015,4 hPa 0,0 l/m 0,7 km/h (0 Bft) SO 142 5 min 0,000 mm 2,2 UV-I 541 W/m 11,1 C 16,2 C 4,8 km/h (1 Bft)
18.05.2014 09:35 16,7 C 71 % 1015,3 hPa 0,0 l/m 1,1 km/h (1 Bft) W 277 5 min 0,000 mm 2,2 UV-I 527 W/m 11,4 C 16,7 C 4,8 km/h (1 Bft)
18.05.2014 09:40 16,4 C 71 % 1015,2 hPa 0,0 l/m 1,9 km/h (1 Bft) SW 234 5 min 0,000 mm 2,4 UV-I 612 W/m 11,1 C 16,4 C 4,8 km/h (1 Bft)
18.05.2014 09:45 16,7 C 69 % 1015,2 hPa 0,0 l/m 6,0 km/h (2 Bft) O 95 5 min 0,000 mm 2,6 UV-I 629 W/m 11,0 C 16,7 C 14,5 km/h (3 Bft)
18.05.2014 09:50 17,7 C 65 % 1015,0 hPa 0,0 l/m 6,6 km/h (2 Bft) O-NO 63 5 min 0,000 mm 2,7 UV-I 617 W/m 11,0 C 17,6 C 14,5 km/h (3 Bft)
18.05.2014 09:55 18,4 C 65 % 1015,0 hPa 0,0 l/m 6,2 km/h (2 Bft) O-NO 58 5 min 0,000 mm 2,8 UV-I 635 W/m 11,7 C 18,4 C 12,9 km/h (3 Bft)
18.05.2014 10:00 17,9 C 60 % 1014,9 hPa 0,0 l/m 7,9 km/h (2 Bft) O-SO 123 5 min 0,000 mm 2,9 UV-I 638 W/m 10,0 C 17,2 C 17,7 km/h (3 Bft)
18.05.2014 10:05 18,2 C 61 % 1015,0 hPa 0,0 l/m 8,5 km/h (2 Bft) SO 128 5 min 0,279 mm 3,0 UV-I 664 W/m 10,6 C 17,2 C 17,7 km/h (3 Bft)
18.05.2014 10:10 18,1 C 60 % 1015,0 hPa 0,0 l/m 9,3 km/h (2 Bft) O-SO 119 5 min 0,000 mm 3,2 UV-I 693 W/m 10,2 C 16,8 C 19,3 km/h (3 Bft)
18.05.2014 10:15 18,3 C 60 % 1015,0 hPa 0,0 l/m 9,7 km/h (2 Bft) O-NO 59 5 min 0,000 mm 3,3 UV-I 671 W/m 10,4 C 16,9 C 16,1 km/h (3 Bft)
18.05.2014 10:20 18,8 C 58 % 1014,9 hPa 0,0 l/m 9,7 km/h (2 Bft) NO 38 5 min 0,000 mm 3,4 UV-I 670 W/m 10,4 C 17,4 C 17,7 km/h (3 Bft)
18.05.2014 10:25 18,3 C 57 % 1014,8 hPa 0,0 l/m 8,7 km/h (2 Bft) O 92 5 min 0,000 mm 3,5 UV-I 664 W/m 9,6 C 17,3 C 16,1 km/h (3 Bft)
18.05.2014 10:30 18,2 C 56 % 1014,8 hPa 0,0 l/m 7,6 km/h (2 Bft) O 90 5 min 0,000 mm 3,6 UV-I 671 W/m 9,3 C 17,6 C 12,9 km/h (3 Bft)
18.05.2014 10:35 19,1 C 56 % 1014,8 hPa 0,0 l/m 3,4 km/h (1 Bft) O-NO 57 5 min 0,000 mm 3,7 UV-I 673 W/m 10,1 C 19,1 C 9,7 km/h (2 Bft)
18.05.2014 10:40 19,8 C 56 % 1014,8 hPa 0,0 l/m 1,3 km/h (1 Bft) N-NW 327 5 min 0,000 mm 3,8 UV-I 689 W/m 10,8 C 19,8 C 6,4 km/h (2 Bft)
18.05.2014 10:45 20,8 C 52 % 1014,7 hPa 0,0 l/m 1,6 km/h (1 Bft) W-NW 294 5 min 0,000 mm 4,0 UV-I 707 W/m 10,6 C 20,8 C 4,8 km/h (1 Bft)
18.05.2014 10:50 20,7 C 50 % 1014,7 hPa 0,0 l/m 1,1 km/h (1 Bft) N-NW 338 5 min 0,000 mm 4,1 UV-I 724 W/m 9,9 C 20,7 C 8,0 km/h (2 Bft)
18.05.2014 10:55 20,9 C 50 % 1014,6 hPa 0,0 l/m 1,7 km/h (1 Bft) NO 44 5 min 0,000 mm 4,0 UV-I 693 W/m 10,1 C 20,9 C 16,1 km/h (3 Bft)
18.05.2014 11:00 21,4 C 49 % 1014,5 hPa 0,0 l/m 7,5 km/h (2 Bft) O 95 5 min 0,000 mm 4,4 UV-I 765 W/m 10,2 C 21,0 C 16,1 km/h (3 Bft)
18.05.2014 11:05 21,3 C 48 % 1014,5 hPa 0,0 l/m 3,6 km/h (1 Bft) O-SO 117 5 min 0,432 mm 4,5 UV-I 800 W/m 9,8 C 21,3 C 9,7 km/h (2 Bft)
18.05.2014 11:10 21,1 C 50 % 1014,5 hPa 0,0 l/m 2,6 km/h (1 Bft) N-NW 327 5 min 0,000 mm 4,7 UV-I 766 W/m 10,3 C 21,1 C 9,7 km/h (2 Bft)
18.05.2014 11:15 22,2 C 48 % 1014,4 hPa 0,0 l/m 4,6 km/h (1 Bft) NO 37 5 min 0,000 mm 4,8 UV-I 884 W/m 10,7 C 22,2 C 11,3 km/h (2 Bft)
18.05.2014 11:20 22,3 C 44 % 1014,4 hPa 0,0 l/m 6,6 km/h (2 Bft) O 90 5 min 0,000 mm 4,8 UV-I 958 W/m 9,5 C 22,2 C 17,7 km/h (3 Bft)
18.05.2014 11:25 20,7 C 47 % 1014,4 hPa 0,0 l/m 5,3 km/h (1 Bft) O-SO 119 5 min 0,000 mm 5,1 UV-I 972 W/m 9,0 C 20,7 C 12,9 km/h (3 Bft)
18.05.2014 11:30 21,1 C 48 % 1014,4 hPa 0,0 l/m 4,7 km/h (1 Bft) O 93 5 min 0,000 mm 3,0 UV-I 981 W/m 9,7 C 21,1 C 11,3 km/h (2 Bft)
18.05.2014 11:35 21,3 C 47 % 1014,4 hPa 0,0 l/m 3,6 km/h (1 Bft) N 9 0 min 0,000 mm 3,5 UV-I 387 W/m 9,5 C 21,3 C 9,7 km/h (2 Bft)
18.05.2014 11:40 20,7 C 49 % 1014,3 hPa 0,0 l/m 5,0 km/h (1 Bft) N 360 0 min 0,000 mm 2,5 UV-I 341 W/m 9,6 C 20,7 C 14,5 km/h (3 Bft)
18.05.2014 11:45 21,2 C 48 % 1014,3 hPa 0,0 l/m 5,0 km/h (1 Bft) O-NO 64 0 min 0,000 mm 2,1 UV-I 294 W/m 9,7 C 21,2 C 12,9 km/h (3 Bft)
18.05.2014 11:50 21,3 C 46 % 1014,3 hPa 0,0 l/m 4,4 km/h (1 Bft) O-NO 69 0 min 0,000 mm 2,1 UV-I 230 W/m 9,2 C 21,3 C 14,5 km/h (3 Bft)
18.05.2014 11:55 20,0 C 46 % 1014,2 hPa 0,0 l/m 6,6 km/h (2 Bft) S-SO 149 0 min 0,000 mm 4,1 UV-I 258 W/m 8,0 C 19,9 C 11,3 km/h (2 Bft)
18.05.2014 12:00 18,5 C 51 % 1014,1 hPa 0,0 l/m 6,0 km/h (2 Bft) O-SO 120 0 min 0,000 mm 2,3 UV-I 214 W/m 8,2 C 18,5 C 12,9 km/h (3 Bft)
18.05.2014 12:05 18,9 C 52 % 1014,1 hPa 0,0 l/m 1,2 km/h (1 Bft) O-NO 78 0 min 0,381 mm 2,5 UV-I 200 W/m 8,8 C 18,9 C 6,4 km/h (2 Bft)
18.05.2014 12:10 19,2 C 51 % 1014,0 hPa 0,0 l/m 0,9 km/h (0 Bft) O-SO 114 0 min 0,000 mm 3,0 UV-I 251 W/m 8,8 C 19,2 C 8,0 km/h (2 Bft)
18.05.2014 12:15 19,4 C 50 % 1014,0 hPa 0,0 l/m 3,3 km/h (1 Bft) O-SO 116 0 min 0,000 mm 2,8 UV-I 185 W/m 8,7 C 19,4 C 8,0 km/h (2 Bft)
18.05.2014 12:20 18,6 C 52 % 1013,9 hPa 0,0 l/m 2,3 km/h (1 Bft) O-SO 108 0 min 0,000 mm 5,6 UV-I 202 W/m 8,5 C 18,6 C 9,7 km/h (2 Bft)
18.05.2014 12:25 19,2 C 53 % 1013,9 hPa 0,0 l/m 1,3 km/h (1 Bft) S-SW 195 5 min 0,000 mm 5,7 UV-I 986 W/m 9,4 C 19,2 C 4,8 km/h (1 Bft)
18.05.2014 12:30 19,4 C 51 % 1013,8 hPa 0,0 l/m 1,9 km/h (1 Bft) S-SW 211 0 min 0,000 mm 2,7 UV-I 243 W/m 9,0 C 19,4 C 8,0 km/h (2 Bft)
18.05.2014 12:35 19,3 C 51 % 1013,7 hPa 0,0 l/m 2,6 km/h (1 Bft) S-SO 161 0 min 0,000 mm 3,7 UV-I 264 W/m 8,9 C 19,3 C 8,0 km/h (2 Bft)
18.05.2014 12:40 20,1 C 53 % 1013,7 hPa 0,0 l/m 1,2 km/h (1 Bft) NW 317 5 min 0,000 mm 6,0 UV-I 921 W/m 10,2 C 20,1 C 6,4 km/h (2 Bft)
18.05.2014 12:45 21,3 C 50 % 1013,6 hPa 0,0 l/m 0,6 km/h (0 Bft) O-NO 61 5 min 0,000 mm 6,3 UV-I 983 W/m 10,4 C 21,3 C 4,8 km/h (1 Bft)
18.05.2014 12:50 21,3 C 46 % 1013,5 hPa 0,0 l/m 0,7 km/h (0 Bft) N 10 5 min 0,000 mm 4,8 UV-I 972 W/m 9,2 C 21,3 C 8,0 km/h (2 Bft)
18.05.2014 12:55 20,8 C 49 % 1013,4 hPa 0,0 l/m 3,9 km/h (1 Bft) O 96 0 min 0,000 mm 6,2 UV-I 355 W/m 9,7 C 20,8 C 12,9 km/h (3 Bft)
18.05.2014 13:00 20,0 C 49 % 1013,4 hPa 0,0 l/m 6,2 km/h (2 Bft) S 169 0 min 0,000 mm 3,1 UV-I 367 W/m 9,0 C 20,0 C 14,5 km/h (3 Bft)
18.05.2014 13:05 19,8 C 50 % 1013,4 hPa 0,0 l/m 3,5 km/h (1 Bft) O-SO 103 0 min 0,305 mm 2,7 UV-I 295 W/m 9,1 C 19,8 C 9,7 km/h (2 Bft)
18.05.2014 13:10 20,2 C 52 % 1013,3 hPa 0,0 l/m 3,2 km/h (1 Bft) NO 51 0 min 0,000 mm 2,6 UV-I 281 W/m 10,0 C 20,2 C 9,7 km/h (2 Bft)
18.05.2014 13:15 20,6 C 50 % 1013,3 hPa 0,0 l/m 3,1 km/h (1 Bft) N-NO 26 0 min 0,000 mm 2,5 UV-I 258 W/m 9,8 C 20,6 C 11,3 km/h (2 Bft)
18.05.2014 13:20 21,0 C 49 % 1013,2 hPa 0,0 l/m 0,9 km/h (0 Bft) N-NW 334 0 min 0,000 mm 2,3 UV-I 220 W/m 9,9 C 21,0 C 6,4 km/h (2 Bft)
18.05.2014 13:25 21,1 C 47 % 1013,2 hPa 0,0 l/m 0,8 km/h (0 Bft) N-NW 327 0 min 0,000 mm 2,2 UV-I 185 W/m 9,3 C 21,1 C 4,8 km/h (1 Bft)
18.05.2014 13:30 19,8 C 51 % 1013,1 hPa 0,0 l/m 1,7 km/h (1 Bft) W 273 0 min 0,000 mm 2,9 UV-I 206 W/m 9,4 C 19,8 C 6,4 km/h (2 Bft)
18.05.2014 13:35 19,7 C 50 % 1013,0 hPa 0,0 l/m 0,4 km/h (0 Bft) S-SO 155 5 min 0,000 mm 6,0 UV-I 916 W/m 9,0 C 19,7 C 4,8 km/h (1 Bft)
18.05.2014 13:40 20,8 C 49 % 1013,0 hPa 0,0 l/m 0,7 km/h (0 Bft) S-SW 194 5 min 0,000 mm 6,0 UV-I 1025 W/m 9,7 C 20,8 C 4,8 km/h (1 Bft)
18.05.2014 13:45 21,8 C 48 % 1012,9 hPa 0,0 l/m 2,7 km/h (1 Bft) S-SW 205 5 min 0,000 mm 4,9 UV-I 977 W/m 10,3 C 21,8 C 9,7 km/h (2 Bft)
18.05.2014 13:50 21,8 C 47 % 1012,9 hPa 0,0 l/m 2,9 km/h (1 Bft) SW 214 0 min 0,000 mm 2,0 UV-I 216 W/m 10,0 C 21,8 C 9,7 km/h (2 Bft)
18.05.2014 13:55 21,6 C 48 % 1012,9 hPa 0,0 l/m 0,6 km/h (0 Bft) S-SO 148 0 min 0,000 mm 1,8 UV-I 174 W/m 10,1 C 21,6 C 4,8 km/h (1 Bft)
18.05.2014 14:00 21,5 C 46 % 1012,9 hPa 0,0 l/m 3,2 km/h (1 Bft) W-NW 295 0 min 0,000 mm 1,6 UV-I 165 W/m 9,4 C 21,5 C 9,7 km/h (2 Bft)
18.05.2014 14:05 21,2 C 47 % 1012,8 hPa 0,0 l/m 1,7 km/h (1 Bft) NW 308 0 min 0,254 mm 1,8 UV-I 178 W/m 9,4 C 21,2 C 8,0 km/h (2 Bft)
18.05.2014 14:10 20,7 C 49 % 1012,8 hPa 0,0 l/m 1,6 km/h (1 Bft) W-NW 290 0 min 0,000 mm 2,1 UV-I 218 W/m 9,6 C 20,7 C 6,4 km/h (2 Bft)
18.05.2014 14:15 20,4 C 49 % 1012,7 hPa 0,0 l/m 1,5 km/h (1 Bft) W 260 0 min 0,000 mm 2,5 UV-I 279 W/m 9,3 C 20,4 C 4,8 km/h (1 Bft)
18.05.2014 14:20 20,2 C 50 % 1012,7 hPa 0,0 l/m 3,1 km/h (1 Bft) W 279 0 min 0,000 mm 2,5 UV-I 302 W/m 9,4 C 20,2 C 9,7 km/h (2 Bft)
18.05.2014 14:25 20,4 C 50 % 1012,7 hPa 0,0 l/m 1,1 km/h (1 Bft) W-SW 242 0 min 0,000 mm 2,5 UV-I 341 W/m 9,6 C 20,4 C 4,8 km/h (1 Bft)
18.05.2014 14:30 20,8 C 49 % 1012,7 hPa 0,0 l/m 1,5 km/h (1 Bft) S-SW 213 0 min 0,000 mm 2,2 UV-I 223 W/m 9,7 C 20,8 C 6,4 km/h (2 Bft)
18.05.2014 14:35 20,6 C 48 % 1012,6 hPa 0,0 l/m 1,4 km/h (1 Bft) S-SO 151 0 min 0,000 mm 2,4 UV-I 216 W/m 9,2 C 20,6 C 6,4 km/h (2 Bft)
18.05.2014 14:40 20,4 C 49 % 1012,6 hPa 0,0 l/m 0,1 km/h (0 Bft) S-SO 154 0 min 0,000 mm 3,4 UV-I 408 W/m 9,3 C 20,4 C 1,6 km/h (1 Bft)
18.05.2014 14:45 20,6 C 48 % 1012,5 hPa 0,0 l/m 1,2 km/h (1 Bft) S 188 5 min 0,000 mm 5,3 UV-I 904 W/m 9,2 C 20,6 C 8,0 km/h (2 Bft)
18.05.2014 14:50 21,3 C 48 % 1012,5 hPa 0,0 l/m 2,0 km/h (1 Bft) NO 55 0 min 0,000 mm 2,4 UV-I 176 W/m 9,8 C 21,3 C 8,0 km/h (2 Bft)
18.05.2014 14:55 21,1 C 47 % 1012,4 hPa 0,0 l/m 3,3 km/h (1 Bft) SW 221 0 min 0,000 mm 2,3 UV-I 174 W/m 9,3 C 21,1 C 9,7 km/h (2 Bft)
18.05.2014 15:00 20,8 C 46 % 1012,4 hPa 0,0 l/m 0,9 km/h (0 Bft) S-SO 150 0 min 0,000 mm 1,9 UV-I 183 W/m 8,8 C 20,8 C 4,8 km/h (1 Bft)
18.05.2014 15:05 20,3 C 48 % 1012,4 hPa 0,0 l/m 0,7 km/h (0 Bft) O-SO 111 0 min 0,203 mm 1,7 UV-I 179 W/m 8,9 C 20,3 C 4,8 km/h (1 Bft)
18.05.2014 15:10 20,4 C 49 % 1012,4 hPa 0,0 l/m 0,3 km/h (0 Bft) SW 236 0 min 0,000 mm 1,4 UV-I 163 W/m 9,3 C 20,4 C 3,2 km/h (1 Bft)
18.05.2014 15:15 20,3 C 48 % 1012,4 hPa 0,0 l/m 0,8 km/h (0 Bft) W-SW 253 0 min 0,000 mm 1,3 UV-I 156 W/m 8,9 C 20,3 C 4,8 km/h (1 Bft)
18.05.2014 15:20 20,4 C 49 % 1012,4 hPa 0,0 l/m 0,8 km/h (0 Bft) W 271 0 min 0,000 mm 1,4 UV-I 176 W/m 9,3 C 20,4 C 4,8 km/h (1 Bft)
18.05.2014 15:25 20,5 C 49 % 1012,3 hPa 0,0 l/m 0,5 km/h (0 Bft) W-NW 288 0 min 0,000 mm 1,8 UV-I 213 W/m 9,4 C 20,5 C 4,8 km/h (1 Bft)
18.05.2014 15:30 20,4 C 49 % 1012,3 hPa 0,0 l/m 0,3 km/h (0 Bft) W-NW 288 0 min 0,000 mm 2,3 UV-I 308 W/m 9,3 C 20,4 C 3,2 km/h (1 Bft)
18.05.2014 15:35 20,7 C 48 % 1012,2 hPa 0,0 l/m 0,6 km/h (0 Bft) SW 229 5 min 0,000 mm 4,0 UV-I 860 W/m 9,3 C 20,7 C 3,2 km/h (1 Bft)
18.05.2014 15:40 21,3 C 48 % 1012,1 hPa 0,0 l/m 4,0 km/h (1 Bft) SW 216 5 min 0,000 mm 4,4 UV-I 868 W/m 9,8 C 21,3 C 9,7 km/h (2 Bft)
18.05.2014 15:45 22,3 C 48 % 1012,0 hPa 0,0 l/m 2,5 km/h (1 Bft) W-NW 293 5 min 0,000 mm 4,3 UV-I 842 W/m 10,8 C 22,3 C 8,0 km/h (2 Bft)
18.05.2014 15:50 22,6 C 44 % 1011,9 hPa 0,0 l/m 2,0 km/h (1 Bft) W 261 5 min 0,000 mm 4,2 UV-I 884 W/m 9,7 C 22,6 C 8,0 km/h (2 Bft)
18.05.2014 15:55 22,3 C 44 % 1011,8 hPa 0,0 l/m 2,1 km/h (1 Bft) W 274 5 min 0,000 mm 4,2 UV-I 817 W/m 9,5 C 22,3 C 8,0 km/h (2 Bft)
18.05.2014 16:00 21,8 C 44 % 1011,8 hPa 0,0 l/m 4,4 km/h (1 Bft) W 280 5 min 0,000 mm 2,5 UV-I 817 W/m 9,0 C 21,8 C 11,3 km/h (2 Bft)
18.05.2014 16:05 21,8 C 46 % 1011,8 hPa 0,0 l/m 2,8 km/h (1 Bft) W 267 0 min 0,280 mm 2,0 UV-I 315 W/m 9,7 C 21,8 C 6,4 km/h (2 Bft)
18.05.2014 16:10 21,6 C 44 % 1011,6 hPa 0,0 l/m 3,7 km/h (1 Bft) W-NW 284 0 min 0,000 mm 2,3 UV-I 343 W/m 8,8 C 21,6 C 9,7 km/h (2 Bft)
18.05.2014 16:15 21,4 C 47 % 1011,6 hPa 0,0 l/m 4,0 km/h (1 Bft) W-SW 242 0 min 0,000 mm 1,4 UV-I 202 W/m 9,6 C 21,4 C 9,7 km/h (2 Bft)
18.05.2014 16:20 21,1 C 46 % 1011,5 hPa 0,0 l/m 3,7 km/h (1 Bft) W-SW 240 0 min 0,000 mm 1,1 UV-I 186 W/m 9,0 C 21,1 C 8,0 km/h (2 Bft)
18.05.2014 16:25 20,7 C 47 % 1011,5 hPa 0,0 l/m 2,7 km/h (1 Bft) W 273 0 min 0,000 mm 0,9 UV-I 141 W/m 9,0 C 20,7 C 8,0 km/h (2 Bft)
18.05.2014 16:30 20,7 C 47 % 1011,5 hPa 0,0 l/m 3,3 km/h (1 Bft) NW 306 0 min 0,000 mm 0,8 UV-I 125 W/m 9,0 C 20,7 C 9,7 km/h (2 Bft)
18.05.2014 16:35 20,8 C 48 % 1011,5 hPa 0,0 l/m 0,2 km/h (0 Bft) NW 306 0 min 0,000 mm 0,8 UV-I 120 W/m 9,4 C 20,8 C 3,2 km/h (1 Bft)
18.05.2014 16:40 20,6 C 48 % 1011,4 hPa 0,0 l/m 2,0 km/h (1 Bft) W-SW 257 0 min 0,000 mm 0,8 UV-I 134 W/m 9,2 C 20,6 C 4,8 km/h (1 Bft)
18.05.2014 16:45 20,3 C 48 % 1011,3 hPa 0,0 l/m 1,3 km/h (1 Bft) W-NW 288 0 min 0,000 mm 0,9 UV-I 156 W/m 8,9 C 20,3 C 6,4 km/h (2 Bft)
18.05.2014 16:50 20,2 C 49 % 1011,3 hPa 0,0 l/m 2,3 km/h (1 Bft) W 267 0 min 0,000 mm 1,1 UV-I 178 W/m 9,1 C 20,2 C 4,8 km/h (1 Bft)
18.05.2014 16:55 20,2 C 48 % 1011,2 hPa 0,0 l/m 2,0 km/h (1 Bft) W-SW 242 0 min 0,000 mm 1,3 UV-I 207 W/m 8,8 C 20,2 C 6,4 km/h (2 Bft)
18.05.2014 17:00 20,6 C 48 % 1011,2 hPa 0,0 l/m 0,1 km/h (0 Bft) SW 235 0 min 0,000 mm 1,4 UV-I 214 W/m 9,2 C 20,6 C 1,6 km/h (1 Bft)
18.05.2014 17:05 21,6 C 47 % 1011,1 hPa 0,0 l/m 0,5 km/h (0 Bft) W 267 0 min 0,152 mm 1,7 UV-I 229 W/m 9,8 C 21,6 C 4,8 km/h (1 Bft)
18.05.2014 17:10 21,3 C 46 % 1011,1 hPa 0,0 l/m 2,3 km/h (1 Bft) W 270 5 min 0,000 mm 2,0 UV-I 439 W/m 9,2 C 21,3 C 6,4 km/h (2 Bft)
18.05.2014 17:15 21,3 C 45 % 1011,0 hPa 0,0 l/m 1,6 km/h (1 Bft) S-SW 194 5 min 0,000 mm 2,1 UV-I 599 W/m 8,9 C 21,3 C 4,8 km/h (1 Bft)
18.05.2014 17:20 22,2 C 44 % 1010,9 hPa 0,0 l/m 0,9 km/h (0 Bft) W 276 5 min 0,000 mm 2,0 UV-I 621 W/m 9,4 C 22,2 C 4,8 km/h (1 Bft)
18.05.2014 17:25 22,1 C 42 % 1010,9 hPa 0,0 l/m 0,6 km/h (0 Bft) O 86 0 min 0,000 mm 1,3 UV-I 237 W/m 8,6 C 22,1 C 4,8 km/h (1 Bft)
18.05.2014 17:30 21,7 C 44 % 1010,8 hPa 0,0 l/m 1,3 km/h (1 Bft) O-NO 65 0 min 0,000 mm 1,3 UV-I 206 W/m 8,9 C 21,7 C 4,8 km/h (1 Bft)
18.05.2014 17:35 21,9 C 43 % 1010,8 hPa 0,0 l/m 0,1 km/h (0 Bft) O-NO 65 0 min 0,000 mm 1,3 UV-I 213 W/m 8,7 C 21,9 C 1,6 km/h (1 Bft)
18.05.2014 17:40 21,7 C 45 % 1010,7 hPa 0,0 l/m 0,0 km/h (0 Bft) O-NO 66 5 min 0,000 mm 1,3 UV-I 283 W/m 9,2 C 21,7 C 1,6 km/h (1 Bft)
18.05.2014 17:45 21,9 C 43 % 1010,7 hPa 0,0 l/m 0,0 km/h (0 Bft) O-NO 66 5 min 0,000 mm 1,6 UV-I 612 W/m 8,7 C 21,9 C 1,6 km/h (1 Bft)
18.05.2014 17:50 22,4 C 43 % 1010,6 hPa 0,0 l/m 0,4 km/h (0 Bft) SW 236 5 min 0,000 mm 1,6 UV-I 615 W/m 9,2 C 22,4 C 3,2 km/h (1 Bft)
18.05.2014 17:55 23,1 C 40 % 1010,6 hPa 0,0 l/m 0,8 km/h (0 Bft) SW 219 5 min 0,000 mm 1,4 UV-I 584 W/m 8,8 C 23,1 C 3,2 km/h (1 Bft)
18.05.2014 18:00 22,6 C 41 % 1010,5 hPa 0,0 l/m 0,1 km/h (0 Bft) S 181 5 min 0,000 mm 1,3 UV-I 540 W/m 8,7 C 22,6 C 1,6 km/h (1 Bft)
18.05.2014 18:05 22,8 C 40 % 1010,6 hPa 0,0 l/m 0,5 km/h (0 Bft) W-SW 252 5 min 0,279 mm 1,2 UV-I 570 W/m 8,5 C 22,8 C 3,2 km/h (1 Bft)
18.05.2014 18:10 23,4 C 40 % 1010,5 hPa 0,0 l/m 3,2 km/h (1 Bft) NW 309 5 min 0,000 mm 1,1 UV-I 566 W/m 9,0 C 23,4 C 9,7 km/h (2 Bft)
18.05.2014 18:15 23,4 C 40 % 1010,4 hPa 0,0 l/m 2,5 km/h (1 Bft) W-NW 293 0 min 0,000 mm 0,8 UV-I 181 W/m 9,0 C 23,4 C 8,0 km/h (2 Bft)
18.05.2014 18:20 22,5 C 41 % 1010,4 hPa 0,0 l/m 2,9 km/h (1 Bft) W-SW 257 0 min 0,000 mm 1,0 UV-I 160 W/m 8,6 C 22,5 C 8,0 km/h (2 Bft)
18.05.2014 18:25 22,2 C 43 % 1010,4 hPa 0,0 l/m 1,8 km/h (1 Bft) W-NW 302 5 min 0,000 mm 1,0 UV-I 417 W/m 9,0 C 22,2 C 6,4 km/h (2 Bft)
18.05.2014 18:30 22,3 C 42 % 1010,3 hPa 0,0 l/m 1,3 km/h (1 Bft) W-SW 258 5 min 0,000 mm 0,9 UV-I 392 W/m 8,8 C 22,3 C 4,8 km/h (1 Bft)
18.05.2014 18:35 22,7 C 42 % 1010,3 hPa 0,0 l/m 0,0 km/h (0 Bft) W-SW 258 5 min 0,000 mm 0,8 UV-I 367 W/m 9,1 C 22,7 C 1,6 km/h (1 Bft)
18.05.2014 18:40 23,2 C 40 % 1010,2 hPa 0,0 l/m 0,4 km/h (0 Bft) NW 317 5 min 0,000 mm 0,8 UV-I 381 W/m 8,8 C 23,2 C 3,2 km/h (1 Bft)
18.05.2014 18:45 23,4 C 40 % 1010,2 hPa 0,0 l/m 0,2 km/h (0 Bft) N 355 5 min 0,000 mm 0,7 UV-I 374 W/m 9,0 C 23,4 C 3,2 km/h (1 Bft)
18.05.2014 18:50 23,6 C 41 % 1010,2 hPa 0,0 l/m 0,7 km/h (0 Bft) NW 304 0 min 0,000 mm 0,5 UV-I 139 W/m 9,6 C 23,6 C 6,4 km/h (2 Bft)
18.05.2014 18:55 23,2 C 41 % 1010,1 hPa 0,0 l/m 0,9 km/h (0 Bft) W-NW 302 0 min 0,000 mm 0,5 UV-I 128 W/m 9,2 C 23,2 C 4,8 km/h (1 Bft)
18.05.2014 19:00 22,7 C 42 % 1010,0 hPa 0,0 l/m 1,5 km/h (1 Bft) W-NW 288 5 min 0,000 mm 0,5 UV-I 178 W/m 9,1 C 22,7 C 4,8 km/h (1 Bft)
18.05.2014 19:05 21,9 C 44 % 1010,0 hPa 0,0 l/m 2,8 km/h (1 Bft) SW 215 0 min 0,229 mm 0,5 UV-I 120 W/m 9,1 C 21,9 C 6,4 km/h (2 Bft)
18.05.2014 19:10 21,3 C 46 % 1010,0 hPa 0,0 l/m 2,6 km/h (1 Bft) W 269 0 min 0,000 mm 0,0 UV-I 132 W/m 9,2 C 21,3 C 9,7 km/h (2 Bft)
18.05.2014 19:15 20,8 C 48 % 1010,0 hPa 0,0 l/m 5,1 km/h (1 Bft) W-NW 298 5 min 0,000 mm 0,0 UV-I 153 W/m 9,4 C 20,8 C 11,3 km/h (2 Bft)
18.05.2014 19:20 20,7 C 48 % 1010,0 hPa 0,0 l/m 3,4 km/h (1 Bft) W 273 5 min 0,000 mm 0,0 UV-I 241 W/m 9,3 C 20,7 C 6,4 km/h (2 Bft)
18.05.2014 19:25 20,6 C 49 % 1010,0 hPa 0,0 l/m 3,2 km/h (1 Bft) W-SW 244 0 min 0,000 mm 0,0 UV-I 107 W/m 9,5 C 20,6 C 9,7 km/h (2 Bft)
18.05.2014 19:30 20,7 C 49 % 1009,9 hPa 0,0 l/m 1,3 km/h (1 Bft) W-NW 288 5 min 0,000 mm 0,0 UV-I 181 W/m 9,6 C 20,7 C 6,4 km/h (2 Bft)
18.05.2014 19:35 20,8 C 48 % 1009,9 hPa 0,0 l/m 1,8 km/h (1 Bft) W-NW 282 0 min 0,000 mm 0,0 UV-I 53 W/m 9,4 C 20,8 C 4,8 km/h (1 Bft)
18.05.2014 19:40 20,6 C 50 % 1010,0 hPa 0,0 l/m 0,8 km/h (0 Bft) W-NW 282 0 min 0,000 mm 0,0 UV-I 58 W/m 9,8 C 20,6 C 3,2 km/h (1 Bft)
18.05.2014 19:45 20,4 C 50 % 1009,9 hPa 0,0 l/m 0,5 km/h (0 Bft) W-NW 282 0 min 0,000 mm 0,0 UV-I 53 W/m 9,6 C 20,4 C 3,2 km/h (1 Bft)
18.05.2014 19:50 20,2 C 50 % 1009,9 hPa 0,0 l/m 1,8 km/h (1 Bft) W-NW 300 5 min 0,000 mm 0,0 UV-I 104 W/m 9,4 C 20,2 C 4,8 km/h (1 Bft)
18.05.2014 19:55 20,1 C 50 % 1009,9 hPa 0,0 l/m 0,1 km/h (0 Bft) W-NW 300 5 min 0,000 mm 0,0 UV-I 114 W/m 9,3 C 20,1 C 1,6 km/h (1 Bft)
18.05.2014 20:00 20,1 C 51 % 1009,9 hPa 0,0 l/m 0,0 km/h (0 Bft) W-NW 300 0 min 0,000 mm 0,0 UV-I 42 W/m 9,6 C 20,1 C 1,6 km/h (1 Bft)
18.05.2014 20:05 19,9 C 52 % 1009,9 hPa 0,0 l/m 0,0 km/h (0 Bft) W-NW 300 0 min 0,102 mm 0,0 UV-I 47 W/m 9,7 C 19,9 C 0,0 km/h (0 Bft)
18.05.2014 20:10 19,9 C 53 % 1009,9 hPa 0,0 l/m 0,0 km/h (0 Bft) W-NW 300 0 min 0,000 mm 0,0 UV-I 74 W/m 10,0 C 19,9 C 1,6 km/h (1 Bft)
18.05.2014 20:15 19,9 C 52 % 1009,9 hPa 0,0 l/m 0,1 km/h (0 Bft) W-NW 300 0 min 0,000 mm 0,0 UV-I 35 W/m 9,7 C 19,9 C 1,6 km/h (1 Bft)
18.05.2014 20:20 19,8 C 54 % 1009,9 hPa 0,0 l/m 0,0 km/h (0 Bft) W-NW 300 0 min 0,000 mm 0,0 UV-I 30 W/m 10,2 C 19,8 C 1,6 km/h (1 Bft)
18.05.2014 20:25 19,7 C 54 % 1009,8 hPa 0,0 l/m 0,0 km/h (0 Bft) W-NW 300 0 min 0,000 mm 0,0 UV-I 26 W/m 10,1 C 19,7 C 1,6 km/h (1 Bft)
18.05.2014 20:30 19,4 C 55 % 1009,9 hPa 0,0 l/m 0,0 km/h (0 Bft) W-NW 300 0 min 0,000 mm 0,0 UV-I 23 W/m 10,1 C 19,4 C 0,0 km/h (0 Bft)
18.05.2014 20:35 19,1 C 57 % 1009,9 hPa 0,0 l/m 0,0 km/h (0 Bft) W-NW 300 0 min 0,000 mm 0,0 UV-I 19 W/m 10,4 C 19,1 C 0,0 km/h (0 Bft)
18.05.2014 20:40 18,8 C 57 % 1009,9 hPa 0,0 l/m 0,0 km/h (0 Bft) W-NW 300 0 min 0,000 mm 0,0 UV-I 19 W/m 10,1 C 18,8 C 0,0 km/h (0 Bft)
18.05.2014 20:45 18,4 C 58 % 1009,9 hPa 0,0 l/m 0,0 km/h (0 Bft) W-NW 300 0 min 0,000 mm 0,0 UV-I 16 W/m 10,0 C 18,4 C 0,0 km/h (0 Bft)
18.05.2014 20:50 18,1 C 59 % 1009,9 hPa 0,0 l/m 0,0 km/h (0 Bft) W-NW 300 0 min 0,000 mm 0,0 UV-I 12 W/m 10,0 C 18,1 C 0,0 km/h (0 Bft)
18.05.2014 20:55 17,8 C 60 % 1009,9 hPa 0,0 l/m 0,0 km/h (0 Bft) W-NW 300 0 min 0,000 mm 0,0 UV-I 11 W/m 9,9 C 17,8 C 0,0 km/h (0 Bft)
18.05.2014 21:00 17,7 C 62 % 1010,0 hPa 0,0 l/m 0,0 km/h (0 Bft) W-NW 300 0 min 0,000 mm 0,0 UV-I 7 W/m 10,3 C 17,7 C 0,0 km/h (0 Bft)
18.05.2014 21:05 17,6 C 63 % 1009,9 hPa 0,0 l/m 0,0 km/h (0 Bft) W-NW 300 0 min 0,025 mm 0,0 UV-I 5 W/m 10,5 C 17,6 C 0,0 km/h (0 Bft)
18.05.2014 21:10 17,4 C 63 % 1010,0 hPa 0,0 l/m 0,0 km/h (0 Bft) W-NW 300 0 min 0,000 mm 0,0 UV-I 0 W/m 10,3 C 17,4 C 0,0 km/h (0 Bft)
18.05.2014 21:15 17,0 C 62 % 1010,1 hPa 0,0 l/m 1,5 km/h (1 Bft) O-NO 60 0 min 0,000 mm 0,0 UV-I 0 W/m 9,7 C 17,0 C 6,4 km/h (2 Bft)
18.05.2014 21:20 16,1 C 68 % 1010,4 hPa 0,0 l/m 9,5 km/h (2 Bft) NO 53 0 min 0,000 mm 0,0 UV-I 0 W/m 10,2 C 14,6 C 19,3 km/h (3 Bft)
18.05.2014 21:25 16,0 C 70 % 1010,4 hPa 0,0 l/m 11,1 km/h (2 Bft) NO 55 0 min 0,000 mm 0,0 UV-I 0 W/m 10,5 C 13,8 C 22,5 km/h (4 Bft)
18.05.2014 21:30 16,0 C 70 % 1010,6 hPa 0,0 l/m 5,7 km/h (1 Bft) O-NO 68 0 min 0,000 mm 0,0 UV-I 0 W/m 10,5 C 16,0 C 16,1 km/h (3 Bft)
18.05.2014 21:35 16,0 C 71 % 1010,6 hPa 0,0 l/m 4,0 km/h (1 Bft) N-NO 13 0 min 0,000 mm 0,0 UV-I 0 W/m 10,7 C 16,0 C 12,9 km/h (3 Bft)
18.05.2014 21:40 15,8 C 72 % 1010,7 hPa 0,0 l/m 8,5 km/h (2 Bft) O-NO 66 0 min 0,000 mm 0,0 UV-I 0 W/m 10,8 C 14,7 C 19,3 km/h (3 Bft)
18.05.2014 21:45 15,5 C 73 % 1010,7 hPa 0,0 l/m 8,8 km/h (2 Bft) NO 41 0 min 0,000 mm 0,0 UV-I 0 W/m 10,7 C 14,2 C 17,7 km/h (3 Bft)
18.05.2014 21:50 15,3 C 74 % 1010,8 hPa 0,0 l/m 8,8 km/h (2 Bft) O-NO 65 0 min 0,000 mm 0,0 UV-I 0 W/m 10,7 C 14,0 C 17,7 km/h (3 Bft)
18.05.2014 21:55 15,2 C 75 % 1010,7 hPa 0,0 l/m 10,6 km/h (2 Bft) NO 54 0 min 0,000 mm 0,0 UV-I 0 W/m 10,8 C 13,1 C 17,7 km/h (3 Bft)
18.05.2014 22:00 15,1 C 75 % 1010,7 hPa 0,0 l/m 6,5 km/h (2 Bft) NO 54 0 min 0,000 mm 0,0 UV-I 0 W/m 10,7 C 15,1 C 12,9 km/h (3 Bft)
18.05.2014 22:05 15,1 C 75 % 1010,7 hPa 0,0 l/m 4,3 km/h (1 Bft) NO 56 0 min 0,025 mm 0,0 UV-I 0 W/m 10,7 C 15,1 C 12,9 km/h (3 Bft)
18.05.2014 22:10 14,9 C 75 % 1010,8 hPa 0,0 l/m 7,4 km/h (2 Bft) O-NO 65 0 min 0,000 mm 0,0 UV-I 0 W/m 10,5 C 14,3 C 19,3 km/h (3 Bft)
18.05.2014 22:15 14,8 C 76 % 1010,7 hPa 0,0 l/m 5,6 km/h (1 Bft) O 86 0 min 0,000 mm 0,0 UV-I 0 W/m 10,6 C 14,8 C 14,5 km/h (3 Bft)
18.05.2014 22:20 14,7 C 76 % 1010,7 hPa 0,0 l/m 8,0 km/h (2 Bft) NO 53 0 min 0,000 mm 0,0 UV-I 0 W/m 10,5 C 13,8 C 16,1 km/h (3 Bft)
18.05.2014 22:25 14,7 C 76 % 1010,7 hPa 0,0 l/m 5,7 km/h (1 Bft) NO 44 0 min 0,000 mm 0,0 UV-I 0 W/m 10,5 C 14,7 C 11,3 km/h (2 Bft)
18.05.2014 22:30 14,6 C 77 % 1010,7 hPa 0,0 l/m 3,4 km/h (1 Bft) NO 56 0 min 0,000 mm 0,0 UV-I 0 W/m 10,6 C 14,6 C 8,0 km/h (2 Bft)
18.05.2014 22:35 14,6 C 77 % 1010,7 hPa 0,0 l/m 2,6 km/h (1 Bft) N-NO 22 0 min 0,000 mm 0,0 UV-I 0 W/m 10,6 C 14,6 C 8,0 km/h (2 Bft)
18.05.2014 22:40 14,4 C 77 % 1010,6 hPa 0,0 l/m 2,5 km/h (1 Bft) NO 45 0 min 0,000 mm 0,0 UV-I 0 W/m 10,4 C 14,4 C 6,4 km/h (2 Bft)
18.05.2014 22:45 14,4 C 76 % 1010,7 hPa 0,0 l/m 5,2 km/h (1 Bft) O-NO 69 0 min 0,000 mm 0,0 UV-I 0 W/m 10,2 C 14,4 C 16,1 km/h (3 Bft)
18.05.2014 22:50 14,3 C 76 % 1010,7 hPa 0,0 l/m 3,7 km/h (1 Bft) O-NO 69 0 min 0,000 mm 0,0 UV-I 0 W/m 10,1 C 14,3 C 11,3 km/h (2 Bft)
18.05.2014 22:55 14,3 C 76 % 1010,7 hPa 0,0 l/m 4,8 km/h (1 Bft) NO 53 0 min 0,000 mm 0,0 UV-I 0 W/m 10,1 C 14,3 C 8,0 km/h (2 Bft)
18.05.2014 23:00 14,2 C 76 % 1010,5 hPa 0,0 l/m 2,6 km/h (1 Bft) O-NO 72 0 min 0,000 mm 0,0 UV-I 0 W/m 10,0 C 14,2 C 6,4 km/h (2 Bft)
18.05.2014 23:05 14,1 C 76 % 1010,5 hPa 0,0 l/m 2,1 km/h (1 Bft) O-NO 76 0 min 0,026 mm 0,0 UV-I 0 W/m 9,9 C 14,1 C 8,0 km/h (2 Bft)
18.05.2014 23:10 14,1 C 76 % 1010,5 hPa 0,0 l/m 2,8 km/h (1 Bft) NO 47 0 min 0,000 mm 0,0 UV-I 0 W/m 9,9 C 14,1 C 8,0 km/h (2 Bft)
18.05.2014 23:15 14,0 C 76 % 1010,6 hPa 0,0 l/m 1,2 km/h (1 Bft) N-NO 14 0 min 0,000 mm 0,0 UV-I 0 W/m 9,8 C 14,0 C 6,4 km/h (2 Bft)
18.05.2014 23:20 13,9 C 76 % 1010,6 hPa 0,0 l/m 0,4 km/h (0 Bft) O-NO 62 0 min 0,000 mm 0,0 UV-I 0 W/m 9,7 C 13,9 C 3,2 km/h (1 Bft)
18.05.2014 23:25 13,9 C 76 % 1010,6 hPa 0,0 l/m 0,0 km/h (0 Bft) O-NO 62 0 min 0,000 mm 0,0 UV-I 0 W/m 9,7 C 13,9 C 1,6 km/h (1 Bft)
18.05.2014 23:30 13,9 C 76 % 1010,6 hPa 0,0 l/m 0,0 km/h (0 Bft) O-NO 62 0 min 0,000 mm 0,0 UV-I 0 W/m 9,7 C 13,9 C 1,6 km/h (1 Bft)
18.05.2014 23:35 13,8 C 76 % 1010,6 hPa 0,0 l/m 0,5 km/h (0 Bft) O-NO 62 0 min 0,000 mm 0,0 UV-I 0 W/m 9,6 C 13,8 C 4,8 km/h (1 Bft)
18.05.2014 23:40 13,8 C 76 % 1010,6 hPa 0,0 l/m 0,1 km/h (0 Bft) O-NO 62 0 min 0,000 mm 0,0 UV-I 0 W/m 9,6 C 13,8 C 1,6 km/h (1 Bft)
18.05.2014 23:45 13,8 C 76 % 1010,6 hPa 0,0 l/m 0,0 km/h (0 Bft) O-NO 62 0 min 0,000 mm 0,0 UV-I 0 W/m 9,6 C 13,8 C 0,0 km/h (0 Bft)
18.05.2014 23:50 13,7 C 76 % 1010,6 hPa 0,0 l/m 0,0 km/h (0 Bft) O-NO 62 0 min 0,000 mm 0,0 UV-I 0 W/m 9,5 C 13,7 C 1,6 km/h (1 Bft)
18.05.2014 23:55 13,6 C 77 % 1010,6 hPa 0,0 l/m 0,0 km/h (0 Bft) O-NO 62 0 min 0,000 mm 0,0 UV-I 0 W/m 9,6 C 13,6 C 1,6 km/h (1 Bft)
_ Min-Zeit 05:55 17:55 20:25 - 00:00 - - - - - - 05:55 05:55 00:00
Minimum _ 6,9 C 40 % 1009,8 hPa - 0,0 km/h (0 Bft) - - - - - - 5,7 C 6,9 C 0,0 km/h (0 Bft)
_ Max-Zeit 18:50 05:25 00:10 00:00 21:25 - - 07:05 11:05 12:45 13:40 09:55 18:50 21:25
Maximum _ 23,6 C 93 % 1019,2 hPa 0,0 l/m 11,1 km/h
NO (2 Bft)
- - 5 min 0,432 mm 6,3 UV-I 1025 W/m 11,7 C 23,6 C 22,5 km/h
NO (4 Bft)
Durchschnitt _ 15,2 C 68 % 1014,1 hPa #0,0 l/m 1,8 km/h (1 Bft) W-NW - #7:15 h #3,226 mm 2,4 UV-I 336 W/m 8,7 C 15,2 C 5,5 km/h (1 Bft)